WA9NNN-10 Weather Reports


Display with metric or nautical units.
time (UTC)temp
F
wind
direction
speed
MPH
gust
MPH
rain 1hr
in
rain 24hr
in
rain mn
in
humidity
%
barometer
mb
20260503005636 54 208 1.0 1.0 0.00 0.00 0.00 44 1015.8
20260503005136 54 0 0.0 1.0 0.00 0.00 0.00 44 1015.8
20260503004636 54 236 1.0 1.0 0.00 0.00 0.00 43 1015.8
20260503004136 54 208 1.0 1.0 0.00 0.00 0.00 43 1015.8
20260503003636 55 0 0.0 1.0 0.00 0.00 0.00 43 1015.8
20260503003136 55 255 1.0 2.0 0.00 0.00 0.00 43 1015.9
20260503002636 55 213 1.0 2.0 0.00 0.00 0.00 43 1015.8
20260503002136 55 248 1.0 2.0 0.00 0.00 0.00 45 1015.9
20260503001636 55 239 2.0 2.0 0.00 0.00 0.00 47 1015.9
20260503001136 55 169 2.0 1.0 0.00 0.00 0.00 51 1015.9
20260503000636 55 8 4.0 1.0 0.00 0.00 0.00 51 1015.8
20260503000136 55 0 0.0 1.0 0.00 0.00 0.00 51 1015.9
20260502235636 54 153 2.0 2.0 0.00 0.00 0.00 53 1015.8
20260502235136 54 117 2.0 2.0 0.00 0.00 0.00 53 1015.9
20260502234636 53 0 0.0 1.0 0.00 0.00 0.00 54 1016.0
20260502234136 53 103 1.0 2.0 0.00 0.00 0.00 55 1016.1
20260502233636 53 106 1.0 2.0 0.00 0.00 0.00 56 1016.0
20260502233136 53 84 2.0 1.0 0.00 0.00 0.00 56 1016.2
20260502232636 53 0 0.0 1.0 0.00 0.00 0.00 55 1016.3
20260502232137 53 59 2.0 2.0 0.00 0.00 0.00 55 1016.2
20260502231636 53 0 0.0 4.0 0.00 0.00 0.00 55 1016.3
20260502231137 53 88 4.0 4.0 0.00 0.00 0.00 54 1016.4
20260502230636 53 79 2.0 3.0 0.00 0.00 0.00 54 1016.4
20260502230137 53 82 1.0 3.0 0.00 0.00 0.00 53 1016.4
20260502225640 53 141 2.0 4.0 0.00 0.00 0.00 52 1016.5
20260502225137 53 75 4.0 5.0 0.00 0.00 0.00 52 1016.4
20260502224637 54 76 5.0 4.0 0.00 0.00 0.00 52 1016.4
20260502224137 54 65 4.0 5.0 0.00 0.00 0.00 51 1016.6
20260502223638 55 70 7.0 5.0 0.00 0.00 0.00 49 1016.5
20260502223137 55 60 7.0 4.0 0.00 0.00 0.00 49 1016.5
20260502222637 55 117 2.0 3.0 0.00 0.00 0.00 49 1016.5
20260502222137 54 0 0.0 3.0 0.00 0.00 0.00 49 1016.6
20260502221637 54 77 4.0 3.0 0.00 0.00 0.00 49 1016.5
20260502221137 54 74 3.0 3.0 0.00 0.00 0.00 48 1016.6
20260502220637 54 53 1.0 3.0 0.00 0.00 0.00 48 1016.6
20260502220137 55 93 1.0 3.0 0.00 0.00 0.00 47 1016.6
20260502215637 55 79 2.0 2.0 0.00 0.00 0.00 46 1016.7
20260502215138 55 48 5.0 2.0 0.00 0.00 0.00 46 1016.7
20260502214637 55 84 3.0 2.0 0.00 0.00 0.00 46 1016.7
20260502214137 55 70 3.0 2.0 0.00 0.00 0.00 45 1016.8
20260502213637 55 151 2.0 2.0 0.00 0.00 0.00 46 1016.7
20260502213137 55 163 1.0 3.0 0.00 0.00 0.00 46 1016.8
20260502212637 55 80 2.0 4.0 0.00 0.00 0.00 46 1016.8
20260502212138 54 57 3.0 4.0 0.00 0.00 0.00 47 1016.8
20260502211637 54 82 5.0 4.0 0.00 0.00 0.00 46 1016.8
20260502211137 54 77 6.0 3.0 0.00 0.00 0.00 46 1016.9
20260502210637 54 85 3.0 3.0 0.00 0.00 0.00 47 1016.9
20260502210137 54 53 1.0 3.0 0.00 0.00 0.00 47 1017.0
20260502205637 54 99 1.0 3.0 0.00 0.00 0.00 47 1017.0
20260502205138 54 79 4.0 3.0 0.00 0.00 0.00 47 1017.1
20260502204637 54 81 2.0 3.0 0.00 0.00 0.00 47 1017.2
20260502204137 54 84 4.0 4.0 0.00 0.00 0.00 48 1017.2
20260502203637 54 72 2.0 4.0 0.00 0.00 0.00 48 1017.3
20260502203138 54 134 3.0 4.0 0.00 0.00 0.00 48 1017.3
20260502202637 53 121 1.0 4.0 0.00 0.00 0.00 48 1017.3
20260502202137 53 63 6.0 3.0 0.00 0.00 0.00 47 1017.4
20260502201636 54 60 4.0 3.0 0.00 0.00 0.00 47 1017.5
20260502201138 54 166 4.0 4.0 0.00 0.00 0.00 46 1017.6
20260502200637 54 73 2.0 3.0 0.00 0.00 0.00 46 1017.6
20260502200137 55 72 4.0 3.0 0.00 0.00 0.00 46 1017.6
20260502195636 55 108 2.0 4.0 0.00 0.00 0.00 46 1017.6
20260502195137 55 172 1.0 5.0 0.00 0.00 0.00 46 1017.6
20260502194637 55 55 7.0 5.0 0.00 0.00 0.00 46 1017.7
20260502194137 55 89 6.0 4.0 0.00 0.00 0.00 47 1017.8
20260502193636 54 86 4.0 5.0 0.00 0.00 0.00 47 1018.0
20260502193137 54 79 2.0 6.0 0.00 0.00 0.00 46 1018.1
20260502192637 55 71 8.0 5.0 0.00 0.00 0.00 45 1018.1
20260502192137 55 39 3.0 4.0 0.00 0.00 0.00 44 1018.1
20260502191637 55 61 2.0 4.0 0.00 0.00 0.00 43 1018.1
20260502191137 56 70 4.0 4.0 0.00 0.00 0.00 43 1018.1
20260502190637 56 52 3.0 3.0 0.00 0.00 0.00 42 1018.2
20260502190137 56 53 3.0 3.0 0.00 0.00 0.00 43 1018.3
20260502185637 55 360 2.0 2.0 0.00 0.00 0.00 42 1018.4
20260502185137 56 0 0.0 2.0 0.00 0.00 0.00 41 1018.5
20260502184637 56 222 3.0 2.0 0.00 0.00 0.00 41 1018.5
20260502184137 56 261 1.0 2.0 0.00 0.00 0.00 42 1018.5
20260502183637 55 96 1.0 3.0 0.00 0.00 0.00 42 1018.5
20260502183137 54 172 3.0 4.0 0.00 0.00 0.00 44 1018.5
20260502182636 55 52 8.0 3.0 0.00 0.00 0.00 44 1018.7
20260502182137 55 72 2.0 2.0 0.00 0.00 0.00 43 1018.7
20260502181637 55 57 3.0 2.0 0.00 0.00 0.00 41 1018.8
20260502181137 55 82 3.0 4.0 0.00 0.00 0.00 42 1018.8
20260502180636 56 30 3.0 4.0 0.00 0.00 0.00 43 1018.8
20260502180137 55 65 5.0 5.0 0.00 0.00 0.00 44 1018.8
20260502170137 53 36 3.0 4.0 0.00 0.00 0.00 38 1019.3
20260502164137 54 11 4.0 4.0 0.00 0.00 0.00 38 1019.3
20260502163637 54 39 5.0 3.0 0.00 0.00 0.00 38 1019.4
20260502163137 53 289 1.0 4.0 0.00 0.00 0.00 37 1019.5
20260502162636 53 359 8.0 3.0 0.00 0.00 0.00 38 1019.6
20260502162137 53 352 5.0 3.0 0.00 0.00 0.00 40 1019.7
20260502161636 52 67 5.0 3.0 0.00 0.00 0.00 39 1019.6
20260502161137 52 7 4.0 3.0 0.00 0.00 0.00 40 1019.7
20260502160637 51 288 5.0 3.0 0.00 0.00 0.00 41 1019.7
20260502160137 51 337 2.0 4.0 0.00 0.00 0.00 41 1019.7
20260502152137 52 268 6.0 4.0 0.00 0.00 0.00 42 1019.8
20260502151636 52 116 2.0 3.0 0.00 0.00 0.00 42 1019.7
20260502151137 52 18 4.0 2.0 0.00 0.00 0.00 43 1019.8
20260502150637 51 340 3.0 3.0 0.00 0.00 0.00 43 1019.7
20260502150137 50 0 0.0 3.0 0.00 0.00 0.00 44 1019.7
20260502130636 41 316 3.0 2.0 0.00 0.00 0.00 78 1019.7
20260502130137 41 333 2.0 2.0 0.00 0.00 0.00 79 1019.7
20260502123636 39 263 1.0 1.0 0.00 0.00 0.00 83 1019.7
20260502123136 39 280 1.0 1.0 0.00 0.00 0.00 84 1019.7
20260502122636 38 0 0.0 0.0 0.00 0.00 0.00 84 1019.7
20260502122137 38 0 0.0 0.0 0.00 0.00 0.00 84 1019.7
20260502121636 38 0 0.0 0.0 0.00 0.00 0.00 84 1019.7
20260502121136 38 0 0.0 0.0 0.00 0.00 0.00 85 1019.7
20260502120636 37 0 0.0 0.0 0.00 0.00 0.00 85 1019.6
20260502120136 37 0 0.0 1.0 0.00 0.00 0.00 85 1019.5
20260502115636 37 0 0.0 0.0 0.00 0.00 0.00 85 1019.5
20260502115136 36 0 0.0 0.0 0.00 0.00 0.00 85 1019.5
20260502114636 36 0 0.0 0.0 0.00 0.00 0.00 85 1019.5
20260502114137 35 349 1.0 0.0 0.00 0.00 0.00 85 1019.4
20260502113636 35 335 1.0 0.0 0.00 0.00 0.00 85 1019.3
20260502113136 34 0 0.0 0.0 0.00 0.00 0.00 85 1019.3
20260502112636 34 0 0.0 0.0 0.00 0.00 0.00 84 1019.3
20260502112136 34 0 0.0 0.0 0.00 0.00 0.00 84 1019.3
20260502111636 33 0 0.0 0.0 0.00 0.00 0.00 84 1019.2
20260502111137 33 0 0.0 0.0 0.00 0.00 0.00 84 1019.2
20260502110636 33 0 0.0 0.0 0.00 0.00 0.00 84 1019.2
20260502110136 33 0 0.0 0.0 0.00 0.00 0.00 83 1019.2
20260502105636 33 0 0.0 0.0 0.00 0.00 0.00 83 1019.2
20260502105136 33 0 0.0 0.0 0.00 0.00 0.00 83 1019.1
20260502104636 33 0 0.0 0.0 0.00 0.00 0.00 83 1019.1
20260502104137 33 0 0.0 0.0 0.00 0.00 0.00 83 1019.1
20260502103636 33 0 0.0 0.0 0.00 0.00 0.00 83 1019.1
20260502103137 33 0 0.0 0.0 0.00 0.00 0.00 83 1019.1
20260502102636 33 0 0.0 0.0 0.00 0.00 0.00 82 1019.1
20260502102137 33 0 0.0 0.0 0.00 0.00 0.00 82 1019.0
20260502101636 33 0 0.0 0.0 0.00 0.00 0.00 82 1019.1
20260502101137 33 0 0.0 0.0 0.00 0.00 0.00 82 1019.1
20260502100636 33 0 0.0 0.0 0.00 0.00 0.00 82 1019.0
20260502100137 33 0 0.0 0.0 0.00 0.00 0.00 82 1019.0
20260502091136 33 0 0.0 0.0 0.00 0.00 0.00 80 1019.0
20260502090637 33 0 0.0 0.0 0.00 0.00 0.00 80 1019.0
20260502090136 33 0 0.0 0.0 0.00 0.00 0.00 79 1019.0
20260502071137 35 0 0.0 0.0 0.00 0.00 0.00 76 1019.1
20260502070637 35 0 0.0 0.0 0.00 0.00 0.00 76 1019.2
20260502070137 35 0 0.0 0.0 0.00 0.00 0.00 76 1019.2
20260502065637 35 0 0.0 0.0 0.00 0.00 0.00 76 1019.2
20260502065138 35 0 0.0 0.0 0.00 0.00 0.00 75 1019.3
20260502064637 35 0 0.0 0.0 0.00 0.00 0.00 75 1019.3
20260502064137 35 0 0.0 0.0 0.00 0.00 0.00 74 1019.3
20260502063637 35 0 0.0 0.0 0.00 0.00 0.00 74 1019.4
20260502063137 35 0 0.0 0.0 0.00 0.00 0.00 73 1019.4
20260502062637 35 0 0.0 0.0 0.00 0.00 0.00 73 1019.5
20260502062137 36 0 0.0 0.0 0.00 0.00 0.00 73 1019.5
20260502061638 36 0 0.0 0.0 0.00 0.00 0.00 72 1019.5
20260502061137 36 0 0.0 0.0 0.00 0.00 0.00 72 1019.5
20260502060637 36 0 0.0 0.0 0.00 0.00 0.00 72 1019.4
20260502060137 36 0 0.0 0.0 0.00 0.00 0.00 71 1019.6
20260502055637 36 0 0.0 0.0 0.00 0.03 0.00 71 1019.6
20260502055137 36 0 0.0 0.0 0.00 0.03 0.00 71 1019.5
20260502054636 36 0 0.0 0.0 0.00 0.03 0.00 71 1019.6
20260502054137 36 0 0.0 0.0 0.00 0.03 0.00 71 1019.6
20260502053637 36 0 0.0 0.0 0.00 0.03 0.00 71 1019.5
20260502053137 36 0 0.0 0.0 0.00 0.03 0.00 70 1019.6
20260502052637 36 0 0.0 0.0 0.00 0.03 0.00 70 1019.5
20260502052138 37 0 0.0 0.0 0.00 0.03 0.00 70 1019.5
20260502051636 37 0 0.0 0.0 0.00 0.03 0.00 70 1019.5
20260502051138 37 0 0.0 0.0 0.00 0.03 0.00 70 1019.6
20260502050637 37 0 0.0 0.0 0.00 0.03 0.00 70 1019.6
20260502050137 37 0 0.0 0.0 0.00 0.03 0.00 69 1019.5
20260502045637 37 0 0.0 0.0 0.00 0.03 0.03 69 1019.6
20260502045138 37 0 0.0 0.0 0.00 0.03 0.03 69 1019.6
20260502044637 37 0 0.0 0.0 0.00 0.03 0.03 68 1019.7
20260502044137 37 94 1.0 0.0 0.00 0.03 0.03 68 1019.6
20260502043637 37 0 0.0 0.0 0.00 0.03 0.03 68 1019.6
20260502043137 37 0 0.0 0.0 0.00 0.03 0.03 67 1019.6
20260502042636 37 0 0.0 0.0 0.00 0.03 0.03 67 1019.5
20260502042137 37 0 0.0 0.0 0.00 0.03 0.03 67 1019.5
20260502041636 38 0 0.0 0.0 0.00 0.03 0.03 67 1019.4
20260502041137 38 0 0.0 0.0 0.00 0.03 0.03 66 1019.5
20260502040637 38 0 0.0 0.0 0.00 0.03 0.03 66 1019.4
20260502040137 38 0 0.0 0.0 0.00 0.03 0.03 66 1019.4
20260502035637 38 0 0.0 0.0 0.00 0.04 0.03 65 1019.4
20260502035138 38 0 0.0 0.0 0.00 0.04 0.03 65 1019.4
20260502034637 38 0 0.0 0.0 0.00 0.04 0.03 65 1019.3
20260502034137 39 0 0.0 0.0 0.00 0.04 0.03 65 1019.3
20260502033636 39 0 0.0 0.0 0.00 0.04 0.03 65 1019.3
20260502033137 39 0 0.0 0.0 0.00 0.04 0.03 65 1019.3
20260502032637 40 0 0.0 0.0 0.00 0.04 0.03 65 1019.3
20260502032137 40 0 0.0 0.0 0.00 0.04 0.03 65 1019.2
20260502031637 40 0 0.0 0.0 0.00 0.04 0.03 64 1019.3
20260502031137 40 0 0.0 2.0 0.00 0.04 0.03 64 1019.3
20260502030636 40 66 1.0 2.0 0.00 0.04 0.03 64 1019.2
20260502030137 40 72 2.0 1.0 0.00 0.04 0.03 64 1019.2
20260502025636 40 77 1.0 1.0 0.00 0.08 0.03 64 1019.1
20260502025137 40 68 1.0 1.0 0.00 0.08 0.03 64 1019.1
20260502024636 40 0 0.0 1.0 0.00 0.08 0.03 64 1019.1
20260502024137 40 74 1.0 2.0 0.00 0.08 0.03 64 1019.1
20260502023636 40 64 1.0 2.0 0.00 0.08 0.03 63 1019.0
20260502023139 40 70 2.0 2.0 0.00 0.08 0.03 63 1018.9
20260502022637 41 72 1.0 2.0 0.00 0.08 0.03 63 1018.9
20260502022138 41 70 2.0 2.0 0.00 0.08 0.03 63 1018.9
20260502021636 41 67 2.0 3.0 0.00 0.08 0.03 63 1018.9
20260502021137 41 60 3.0 3.0 0.00 0.08 0.03 63 1018.8
20260502020636 41 19 2.0 3.0 0.00 0.08 0.03 62 1018.8
20260502020137 41 50 5.0 4.0 0.00 0.08 0.03 63 1018.7
20260502015637 41 63 3.0 4.0 0.00 0.08 0.03 62 1018.8
20260502015137 41 23 2.0 3.0 0.00 0.08 0.03 63 1018.7
20260502014636 41 56 2.0 3.0 0.00 0.08 0.03 63 1018.8
20260502014137 41 76 3.0 4.0 0.00 0.08 0.03 63 1018.7
20260502013636 41 44 3.0 4.0 0.00 0.08 0.03 63 1018.7
20260502013137 41 70 6.0 4.0 0.00 0.08 0.03 63 1018.6
20260502012637 41 30 3.0 4.0 0.00 0.08 0.03 63 1018.6
20260502012137 41 42 6.0 4.0 0.00 0.08 0.03 63 1018.6
20260502011638 41 31 3.0 3.0 0.00 0.08 0.03 63 1018.6
20260502011137 41 63 6.0 2.0 0.00 0.08 0.03 63 1018.5
20260502010636 41 53 1.0 3.0 0.00 0.08 0.03 64 1018.5
20260502010137 41 44 2.0 3.0 0.00 0.08 0.03 64 1018.4